Regional Weather Roundup
Issued by NWS

Home | Current Version | Previous Version | Graphics & Text | Print | Product List | Glossary On
Versions: 1 2 3 4 5 6 7 8 9 10 11 12 13 14 15 16 17 18 19 20 21 22 23 24 25 26 27 28 29 30 31 32 33 34 35 36 37 38 39 40 41 42 43 44 45 46 47 48 49 50
000
ASUS43 KLOT 262312
RWRIL

ILLINOIS REGIONAL WEATHER ROUNDUP
NATIONAL WEATHER SERVICE CHICAGO/ROMEOVILLE IL
600 PM CDT THU MAR 26 2015

NOTE: "FAIR" INDICATES FEW OR NO CLOUDS BELOW 12,000 FEET WITH NO
SIGNIFICANT WEATHER AND/OR OBSTRUCTIONS TO VISIBILITY.

* THESE STATIONS ARE NOT UNDER NWS QUALITY CONTROL. THEY ALSO MAY NOT
  REPORT WEATHER SUCH AS PRECIPITATION OR FOG.

ILZ001-002-007-009-015-016-024-270000-
NORTHWEST ILLINOIS

CITY           SKY/WX    TMP DP  RH WIND       PRES   REMARKS
MOLINE         SUNNY     41  22  46 NW21G26   30.03R
STERLING*      MOSUNNY   41  25  52 N10       30.02R
SAVANNA*       MOSUNNY   40  21  45 NW13G22   30.03R
$$

ILZ003-004-008-010-011-017-018-270000-
NORTH CENTRAL ILLINOIS

CITY           SKY/WX    TMP DP  RH WIND       PRES   REMARKS
ROCKFORD       CLOUDY    37  21  52 N13       30.04R WCI  29
FREEPORT*      CLOUDY    36  22  58 NW14      30.05R WCI  27
ROCHELLE*      CLOUDY    37  24  57 NW16      30.02R WCI  28
DE KALB*       CLOUDY    36  21  54 NW8       30.01S WCI  29
PERU*          CLOUDY    42  28  56 N13       30.01S
$$

ILZ005-006-012>014-019>023-270000-
NORTHEAST ILLINOIS

CITY           SKY/WX    TMP DP  RH WIND       PRES   REMARKS
CHICAGO-OHARE  CLOUDY    38  23  55 NW14      30.00R WCI  30
CHICAGO-MIDWAY PTSUNNY   41  21  44 NW14      30.00R
AURORA         CLOUDY    39  24  55 NW10      30.01S WCI  32
LANSING*       CLOUDY    38  23  53 NE10      29.99S WCI  32
JOLIET*        PTSUNNY   40  24  51 NW7       30.01S
WAUKEGAN       CLOUDY    35  22  58 NW9       30.00R WCI  28
DUPAGE AIRPORT CLOUDY    38  22  52 NW12      30.00S WCI  30
KANKAKEE*      MOSUNNY   41  27  56 NW17G23   30.00S
WHEELING       CLOUDY    37  22  54 NW14      30.02R WCI  28
MORRIS*        MOSUNNY   41  25  52 N8        30.00F
ROMEOVILLE*    CLOUDY    39  22  50 N12       30.01S WCI  32
NORTHERLY ISL    N/A     37  27  67 E2          N/A
$$

LMZ740>746-270000-
SOUTHERN LAKE MICHIGAN

STATION/POSITION SKY/WX   TEMP    WIND        PRES    VSBY  WAVE
                          AIR SEA DIR/SP/G                  HT/PER
                          (F)     (DEG/KT/KT) (MB)    (MI)  (FT/S)
HARRISON CRIB              35      50/  6/  6   N/A
BURNHAM HARBOR             37      60/  3/  7   N/A
CALUMET HARBOR             37      40/  8/  9 1014.6R
BURNS HARBOR               35      30/  6/  8 1016.3R
MICHIGAN CITY              36     320/  6/  6   N/A
$$

ILZ025>027-034>036-040-047-049-050-058-095>099-270000-
WEST-CENTRAL ILLINOIS

CITY           SKY/WX    TMP DP  RH WIND       PRES   REMARKS
QUINCY         MOSUNNY   48  25  40 NW15      30.04S
GALESBURG*     SUNNY     46  22  39 NW16      30.01S
MACOMB*        MOSUNNY   47  27  45 NW15      30.05R
JACKSONVILLE*  SUNNY     50  28  42 NW12G18   30.03R
PITTSFIELD*    SUNNY     49  26  41 NW8       30.04F
$$

ILZ028>032-037-038-041>044-048-051>054-059>061-270000-
CENTRAL ILLINOIS

CITY           SKY/WX    TMP DP  RH WIND       PRES   REMARKS
PONTIAC        PTSUNNY   44  30  57 N12       30.00S
BLOOMINGTON    MOSUNNY   46  26  46 N15       30.00S
DECATUR        SUNNY     48  25  40 NW15G22   30.00S
PEORIA         SUNNY     48  20  32 NW14      30.00F
LACON*         MOSUNNY   45  23  42 NW14      30.00S
LINCOLN*       SUNNY     48  25  40 NW8G16    30.01R
SPRINGFIELD    SUNNY     49  25  39 NW16      30.02S
TAYLORVILLE    SUNNY     45  30  57 NW16      30.01S
$$

ILZ033-039-045-046-055>057-062-063-270000-
EAST-CENTRAL ILLINOIS

CITY           SKY/WX    TMP DP  RH WIND       PRES   REMARKS
CHAMPAIGN      MOSUNNY   46  29  51 N17       29.98S
DANVILLE*      PTSUNNY   44  30  57 NW14G22   29.95S
RANTOUL*       PTSUNNY   46  29  52 N13       29.99R
MATTOON        MOSUNNY   46  31  55 NW16      29.98S
PARIS*         MOSUNNY   45  32  60 NW10G17   29.99S
$$

ILZ079-100>102-270000-
SOUTHWEST ILLINOIS

CITY           SKY/WX    TMP DP  RH WIND       PRES   REMARKS
BELLEVILLE     SUNNY     49  29  44 NW10G18   30.03R
CAHOKIA*       SUNNY     50  27  40 N13       30.04S
SPARTA*        SUNNY     47  32  55 NW8       30.04S
$$

ILZ064>066-069>071-074>076-080>082-084>086-088>090-092>094-270000-
SOUTH-CENTRAL ILLINOIS

CITY           SKY/WX    TMP DP  RH WIND       PRES   REMARKS
CARBONDALE     SUNNY     47  33  58 NW9       30.03R
CAIRO*         MOSUNNY   46  36  68 N9        30.03R
EFFINGHAM*     SUNNY     47  28  48 NW14G20   30.02R
MARION         MOSUNNY   46  34  61 NW17      30.03R
MT. VERNON     MOSUNNY   46  30  53 NW6       30.03R
CENTRALIA*     SUNNY     47  31  53 NW14      30.03R
SALEM*         SUNNY     49  34  55 NW15      30.03R
METROPOLIS*    MOSUNNY   46  36  68 N12       30.00F
$$

ILZ067-068-072-073-078-083-087-091-270000-
SOUTHEAST ILLINOIS

CITY           SKY/WX    TMP DP  RH WIND       PRES   REMARKS
LAWRENCEVILLE  FAIR      47  34  60 NW9       30.00R
FLORA*         FAIR      47  33  58 NW10      30.01S
FAIRFIELD*     SUNNY     46  33  60 NW7       30.00S
HARRISBURG*    MOSUNNY   46  35  65 NW10      30.03R
ROBINSON*      MOSUNNY   45  33  62 N12       30.01R
CARMI*         PTSUNNY  N/A N/A N/A NW15      30.00S
$$

ABBREVIATIONS USED IN REMARKS
   TC - TEMPERATURE IN CELSIUS
  WCI - WIND CHILL INDEX
   HX - HEAT INDEX
  VSB - VISIBILITY
$$



USA.gov is the U.S. government's official web portal to all federal, state and local government web resources and services.